Regional Weather Roundup
Issued by NWS

Home | Current Version | Previous Version | Text Only | Print | Product List | Glossary On
Versions: 1 2 3 4 5 6 7 8 9 10 11 12 13 14 15 16 17 18 19 20 21 22 23 24 25 26 27 28 29 30 31 32 33 34 35 36 37 38 39 40 41 42 43 44 45 46 47 48 49 50
000
ASUS45 KBOU 282007
RWRCO

WEATHER ROUNDUP FOR COLORADO
NATIONAL WEATHER SERVICE DENVER/BOULDER CO
200 PM MDT SAT MAR 28 2015

NOTE: "FAIR" INDICATES FEW OR NO CLOUDS BELOW 12000 FEET WITH NO
SIGNIFICANT WEATHER AND/OR OBSTRUCTIONS TO VISIBILITY.

COZ001>005-013-030-031-282100-
...NORTHWEST COLORADO...

CITY           SKY/WX    TMP DP  RH WIND       PRES   REMARKS
CRAIG          MOSUNNY   71  26  18 W18G25    30.10F
HAYDEN         MOSUNNY   66  25  20 W18G30    30.12F
MEEKER         MOSUNNY   72  24  16 W13G25    30.13F
MOUNT WERNER   NOT AVBL
STEAMBOAT SPGS MOSUNNY   63  26  24 SW13G21   30.13F
WALDEN         SUNNY     57  18  21 W15G24    30.19F
$$

COZ006>008-011-282100-
...WEST CENTRAL VALLEYS...

CITY           SKY/WX    TMP DP  RH WIND       PRES   REMARKS
GRAND JUNCTION SUNNY     71  27  19 MISG      30.11F
MONTROSE       SUNNY     74  20  13 NW10G17   30.16F
EAGLE          MOSUNNY   68  19  15 S22G29    30.17F
RIFLE          SUNNY     74  25  16 W20G26    30.11F
DELTA          SUNNY     77  22  12 CALM      30.12F
NUCLA          SUNNY     70  16  12 NW3       30.22F
$$

COZ017>023-064>068-282100-
...SOUTHWEST COLORADO...

CITY           SKY/WX    TMP DP  RH WIND       PRES   REMARKS
DURANGO        SUNNY     69  22  16 SW16G24   30.21F
CORTEZ         SUNNY     72  21  14 NW16      30.20F
PAGOSA SPRINGS SUNNY     65  13  13 SW10G18   30.26F
TELLURIDE      SUNNY     59  20  21 W3        30.34F
WOLF CREEK PAS SUNNY     43  18  36 SW8G22    30.49F
$$

COZ009-010-012-014-032>034-037-058>063-282100-
...CENTRAL COLORADO...

CITY           SKY/WX    TMP DP  RH WIND       PRES   REMARKS
ASPEN          SUNNY     62  20  19 NW14G21   30.21F
BUENA VISTA    SUNNY     65   9  11 SW16      30.19F
COPPER MTN     SUNNY     45   9  23 W20G32    30.40F
BERTHOUD PASS  FAIR      34  28  80 NW33G44   30.39S WCI  19
COTTONWOOD PAS SUNNY     57   0   9 W12G28    30.29F
GUNNISON       SUNNY     63  19  19 N8G21     30.25F
KREMMLING      SUNNY     64  14  14 W14G24    30.18F
LEADVILLE      SUNNY     47  16  29 W17G23    30.30F
SALIDA         SUNNY     68  16  13 W18G29    30.25F
SUNLIGHT       SUNNY     50  21  32 CALM      30.41F
WILKERSON PASS SUNNY     50   9  18 NW7G20    30.38F
$$

COZ069>075-282100-
...SAN LUIS VALLEY/SANGRE DE CRISTO MOUNTAINS...

CITY           SKY/WX    TMP DP  RH WIND       PRES   REMARKS
ALAMOSA        SUNNY     66  14  13 VRB3      30.22F
LA VETA PASS   SUNNY     54  21  28 S14G28    30.32F
SAGUACHE       SUNNY     66  12  12 NW20G26   30.23F
$$

COZ035-036-038>040-282100-
...NORTHERN COLORADO FRONT RANGE...

CITY           SKY/WX    TMP DP  RH WIND       PRES   REMARKS
DENVER INTL AP MOSUNNY   77  20  12 W12G21    29.99F
DMNS CITY PARK   N/A     77  20  12 NW7G17    29.98F
AURORA         MOSUNNY   74  21  14 NW5       30.02F
FRONT RANGE AP MOSUNNY   77  23  13 SW13G18     N/A
ERIE MUNI ARPT SUNNY     77  17  10 W12G24    29.98F
BOULDER MUN AP SUNNY     75  23  14 W13G24    29.99F
CENTENNIAL     MOSUNNY   74  22  14 NW7       30.02F
BROOMFIELD     MOSUNNY   75  21  13 MISG      30.01F
FORT COLLINS   SUNNY     77  28  16 NE3       29.97F
LONGMONT       SUNNY     80  22  12 SW7       29.99F
$$

COZ041-046-047-076>085-087-088-282100-
...PIKES PEAK/PALMER DIVIDE AND SOUTHERN FOOTHILLS...

CITY           SKY/WX    TMP DP  RH WIND       PRES   REMARKS
COLO. SPRINGS  MOSUNNY   72  19  13 SE8       30.08F
A. F. ACADEMY  NOT AVBL
ELLICOTT       SUNNY    N/A N/A N/A SW15      30.08F
FALCON         SUNNY     70  18  14 S16       30.12F
FORT CARSON    SUNNY     74  22  14 VRB5      30.03F
LIMON          SUNNY     73  19  13 SW8G18    30.03F
MONUMENT HILL  SUNNY     68  19  15 SW12      30.10F
TRINIDAD       SUNNY     74  19  12 S5        30.08F
$$

COZ042>045-048>051-090-091-282100-
...NORTHEAST COLORADO...

CITY           SKY/WX    TMP DP  RH WIND       PRES   REMARKS
GREELEY ARPT   SUNNY     79  23  12 W10G24    29.94F
AKRON          SUNNY     76  26  15 W10G24    29.97F
BURLINGTON     SUNNY     78  22  12 SW13G20   29.98F
WRAY           SUNNY     82  24  12 SW9       29.93F
STERLING       SUNNY     81  28  15 W17G30    29.91F
HOLYOKE        NOT AVBL
FORT MORGAN    SUNNY     79 -26   1 SW9G21    29.96F
$$

COZ086-089-092>099-282100-
...SOUTHEAST COLORADO...

CITY           SKY/WX    TMP DP  RH WIND       PRES   REMARKS
PUEBLO         SUNNY     76  20  12 S12       30.01F
LA JUNTA       SUNNY     79  22  12 VRB3      30.00F
LAMAR          SUNNY     80  25  13 CALM      29.96F
SPRINGFIELD      N/A     77  22  13 VRB3      30.01F
$$


USA.gov is the U.S. government's official web portal to all federal, state and local government web resources and services.